Location: Brahman Valley
(40.6513°N, 111.8855°W)
Time: 02:34:14
(UTC+00:00)

SR - All Passes

Search period start: 12 May 2021 00:00
Search period end: 22 May 2021 00:00
Orbit: 573 x 882 km, 66.7° (Epoch: 11 May)

Date Brightness Start Highest point End Pass type
(mag) Time Alt. Az. Time Alt. Az. Time Alt. Az.
12 May - 08:30:06 10° S 08:35:19 38° ESE 08:40:45 10° NE visible
12 May - 10:12:05 10° WSW 10:17:26 37° NW 10:22:56 10° NNE visible
12 May - 17:11:54 10° N 17:16:44 28° NE 17:21:16 10° ESE daylight
12 May - 18:53:46 10° NW 18:59:04 46° WSW 19:03:55 10° S daylight
13 May - 07:41:54 10° SSE 07:45:54 20° ESE 07:50:00 10° ENE visible
13 May - 09:21:41 10° SW 09:27:25 66° WNW 09:33:22 10° NNE visible
13 May - 11:07:31 10° WNW 11:10:42 15° NW 11:13:55 10° N visible
13 May - 16:22:46 10° N 16:26:24 17° NE 16:29:52 10° E daylight
13 May - 18:03:46 10° NNW 18:09:24 89° ENE 18:14:32 10° SSE daylight
13 May - 19:48:55 10° W 19:50:28 11° W 19:52:00 10° WSW daylight
14 May - 08:31:55 10° SSW 08:37:36 69° ESE 08:43:32 10° NE visible
14 May - 10:15:40 10° W 10:20:17 23° NW 10:24:59 10° N visible
14 May - 15:34:51 10° NNE 15:35:50 10° NNE 15:36:50 10° NE daylight
14 May - 17:14:04 10° NNW 17:19:30 47° NE 17:24:28 10° SE daylight
14 May - 18:56:53 10° NW 19:01:12 24° WSW 19:05:15 10° SSW daylight
15 May - 07:42:52 10° S 07:48:01 36° ESE 07:53:21 10° NE visible
15 May - 09:24:39 10° WSW 09:30:04 39° NW 09:35:38 10° NNE visible
15 May - 16:24:38 10° N 16:29:21 26° NE 16:33:45 10° ESE daylight
15 May - 18:06:25 10° NW 18:11:44 49° WSW 18:16:36 10° S daylight
16 May - 06:54:47 10° SE 06:58:36 18° ESE 07:02:30 10° ENE visible
16 May - 08:34:18 10° SW 08:40:05 70° WNW 08:46:02 10° NNE visible
16 May - 10:19:55 10° WNW 10:23:17 15° NW 10:26:42 10° N visible
16 May - 15:35:34 10° N 15:38:59 16° NE 15:42:16 10° ENE daylight
16 May - 17:16:26 10° NNW 17:22:03 84° ENE 17:27:09 10° SSE daylight
16 May - 19:01:09 10° WNW 19:03:11 12° W 19:05:09 10° WSW daylight
17 May - 07:44:36 10° SSW 07:50:18 64° ESE 07:56:11 10° NE visible
17 May - 09:28:09 10° W 09:32:54 25° NW 09:37:42 10° N visible
17 May - 16:26:45 10° NNW 16:32:07 44° NE 16:37:01 10° SE daylight
17 May - 18:09:27 10° NW 18:13:53 26° WSW 18:18:02 10° SSW daylight
18 May - 06:55:37 10° S 07:00:42 33° ESE 07:05:57 10° NE visible
18 May - 08:37:14 10° WSW 08:42:43 41° NW 08:48:20 10° NNE visible
18 May - 15:37:22 10° N 15:41:57 25° NE 15:46:15 10° E daylight
18 May - 17:19:03 10° NW 17:24:24 53° WSW 17:29:17 10° S daylight
19 May - 06:07:42 10° SE 06:11:18 17° ESE 06:14:59 10° ENE visible
19 May - 07:46:56 10° SW 07:52:44 74° WNW 07:58:42 10° NNE visible
19 May - 09:32:19 10° WNW 09:35:53 16° NW 09:39:28 10° N visible
19 May - 14:48:22 10° N 14:51:34 15° NE 14:54:38 10° ENE daylight
19 May - 16:29:06 10° NNW 16:34:42 78° ENE 16:39:46 10° SSE daylight
19 May - 18:13:30 10° WNW 18:15:53 13° WSW 18:18:11 10° SW daylight
20 May - 06:57:18 10° SSW 07:02:58 60° ESE 07:08:50 10° NE visible
20 May - 08:40:40 10° WSW 08:45:31 26° NW 08:50:25 10° N visible
20 May - 15:39:27 10° NNW 15:44:44 41° NE 15:49:34 10° ESE daylight
20 May - 17:22:02 10° NW 17:26:34 27° WSW 17:30:47 10° SSW daylight
21 May - 06:08:23 10° S 06:13:24 31° ESE 06:18:33 10° NE visible
21 May - 07:49:47 10° SW 07:55:20 44° NW 08:01:01 10° NNE visible
21 May - 09:37:56 10° NW 09:39:03 10° NNW 09:40:08 10° NNW visible
21 May - 14:50:06 10° N 14:54:32 24° NE 14:58:43 10° E daylight
21 May - 16:31:41 10° NW 16:37:04 56° WSW 16:41:57 10° SSE daylight
